Wetbulb
31.96 26.61 24.25 26.51 28.26 30.12 27.99 25.70 23.55 27.88 32.41 30.17 29.49 30.09 32.79 35.70 36.79 35.97 36.83 38.69 41.63 43.48 47.19 49.56 50.19 48.66 46.69 50.73 62.94 65.52 65.37 65.54 65.96 65.75 64.68 63.82 63.63 63.95 64.36 64.57 64.33 63.83 63.47 63.13
28.79 25.69 31.84 32.80 31.67 30.09 28.99 26.32 25.75 29.56 32.85 31.81 29.66 28.94 32.77 35.44 36.24 37.40 37.73 38.12 42.03 42.35 46.95 47.51 45.91 45.30 45.77 47.41 50.45 58.34 64.85 64.93 65.80 65.95 65.57 64.98 65.21 65.07 64.82 64.93 64.41 63.97 63.27 62.93
26.13 30.32 34.39 32.07 29.87 27.84 27.83 25.98 25.80 25.86 30.84 32.80 29.15 25.70 29.37 34.64 36.41 38.04 39.75 42.04 43.75 43.29 42.71 43.58 43.76 42.34 42.61 43.06 45.10 51.06 61.89 64.53 65.39 65.76 65.58 62.42 63.38 62.86 63.33 63.66 63.55 63.65 63.39 62.98
29.31 33.27 32.09 30.20 28.24 29.41 23.34 30.97 29.82 28.75 27.76 21.60 30.02 18.70 27.86 31.63 33.41 36.76 38.53 37.67 37.53 38.16 39.52 40.34 40.50 40.35 40.34 41.19 44.25 45.94 53.16 61.74 64.97 65.98 65.07 63.82 63.05 62.41 63.63 64.27 64.60 63.99 63.10 64.04
29.65 30.86 30.43 29.49 30.01 31.92 27.75 33.64 31.28 30.35 28.05 26.68 25.86 23.29 24.79 33.86 33.46 36.34 36.86 37.10 36.38 36.24 36.55 36.86 37.95 39.69 39.86 40.62 42.00 44.22 48.98 49.73 51.01 54.91 65.22 64.26 63.50 62.99 61.32 62.00 63.51 63.90 63.85 63.81
31.83 35.59 33.41 32.09 34.41 34.06 34.88 31.25 30.92 30.49 26.66 20.35 24.89 23.43 22.95 33.35 36.62 36.50 37.52 37.18 37.89 37.18 37.07 37.88 38.51 39.19 39.26 39.96 41.52 43.54 46.12 46.43 48.15 50.61 52.36 60.98 63.69 62.84 60.87 61.30 62.15 62.74 62.91 62.75
31.59 31.08 33.27 36.12 31.37 32.85 31.21 27.26 19.58 18.16 20.38 19.26 27.27 22.42 26.91 34.40 36.36 35.98 35.83 36.78 37.07 37.93 37.34 37.11 37.19 37.83 39.20 39.47 40.46 41.75 42.86 43.92 45.85 47.51 49.50 51.04 53.72 63.02 61.76 61.20 61.73 61.84 62.09 61.86
27.15 23.07 30.28 34.92 32.20 29.36 28.25 28.23 23.59 17.10 18.71 23.75 30.36 24.25 27.85 34.67 35.91 36.35 36.67 36.86 36.94 36.72 37.15 36.95 36.89 36.82 37.39 38.24 39.00 39.95 40.91 42.55 44.14 45.51 47.62 49.72 51.66 52.90 62.24 61.27 61.34 61.08 61.45 61.79
26.59 25.16 34.44 36.77 36.82 34.18 28.98 25.90 33.86 27.44 28.25 24.45 29.69 30.00 33.29 34.48 33.22 33.58 33.14 34.86 34.65 35.33 36.04 35.95 36.60 37.03 36.97 37.38 37.73 38.27 39.47 40.87 42.24 43.41 46.35 48.10 50.06 52.35 53.75 61.78 61.21 60.51 60.39 60.57
31.55 27.66 33.24 35.79 37.82 35.03 32.98 36.00 28.39 28.73 21.38 18.68 25.55 24.76 24.60 27.74 29.89 30.82 30.75 31.17 33.23 34.74 34.78 35.07 35.52 35.99 36.95 37.20 37.86 38.41 38.23 39.23 40.43 41.99 44.13 46.35 48.68 53.08 53.13 57.34 60.68 60.59 60.13 58.88
32.50 32.13 30.06 34.19 32.79 30.41 32.28 30.00 32.62 32.35 28.81 22.67 19.82 22.25 32.49 29.71 30.23 29.99 30.50 31.76 32.31 33.62 33.57 33.81 34.27 34.95 35.37 36.68 36.43 36.82 36.73 37.08 38.68 40.39 42.41 43.91 45.11 47.36 52.95 56.19 61.91 61.06 60.44 59.65
34.15 34.07 25.99 29.43 36.57 38.57 36.41 33.70 33.85 28.25 25.17 29.23 26.78 21.98 33.05 33.55 33.23 33.05 30.67 30.91 31.96 32.94 33.05 32.34 33.05 33.75 33.63 34.04 34.68 34.90 35.56 35.82 37.02 39.40 40.57 41.84 42.89 44.07 45.07 47.65 49.33 60.98 60.26 60.16
36.13 31.52 25.32 26.05 31.57 36.11 33.14 34.89 35.49 35.04 34.39 26.63 23.60 22.92 35.07 34.39 32.81 32.61 29.72 30.16 30.40 31.06 31.50 31.56 31.70 31.85 32.58 32.83 33.21 33.59 34.36 35.03 36.43 37.20 38.30 39.24 39.85 40.83 41.35 42.34 44.61 47.08 59.08 59.78
38.61 34.68 30.36 23.08 27.44 30.96 28.40 33.63 36.51 35.03 27.25 25.09 24.74 25.06 28.30 29.74 29.67 30.95 29.44 29.76 28.88 28.98 29.82 30.16 29.96 30.78 31.30 31.51 31.94 32.15 33.02 33.96 35.19 35.86 36.00 36.69 37.61 38.71 39.56 40.45 41.30 41.95 43.97 52.73
36.65 30.23 31.28 31.24 31.03 30.15 28.19 30.55 31.64 28.80 29.10 23.88 24.75 23.81 26.45 28.39 28.90 29.97 30.13 28.62 27.52 27.71 28.30 29.47 29.61 29.81 30.76 30.01 30.36 31.04 31.39 32.25 33.29 33.69 34.18 35.08 36.34 37.10 37.72 38.40 39.32 39.71 39.38 39.61
36.04 29.11 31.76 30.53 33.40 32.38 25.64 27.85 28.22 29.83 29.85 27.51 26.37 23.73 29.49 29.88 30.03 29.11 28.29 26.85 25.61 26.09 27.32 28.41 29.14 29.66 29.55 29.69 28.40 29.21 29.60 30.62 32.17 31.73 31.82 33.69 34.68 34.81 34.95 35.75 36.43 37.32 37.32 36.96
32.10 32.29 29.93 26.89 30.69 29.16 22.27 25.72 26.47 27.07 29.45 30.21 24.05 26.87 28.98 26.30 26.37 27.24 27.93 26.28 25.08 25.57 26.46 27.30 27.49 28.22 29.15 29.30 27.51 27.36 28.21 29.67 29.69 29.82 30.48 31.13 32.66 33.01 33.45 33.87 33.81 34.04 34.84 35.94
31.40 32.40 32.22 28.66 29.05 18.24 25.93 31.44 31.18 27.23 27.29 30.00 27.81 27.49 27.40 26.24 27.45 28.56 28.99 26.36 24.85 25.09 25.27 26.13 27.18 27.64 27.79 29.45 27.44 26.71 27.42 27.30 27.30 27.51 28.15 28.92 29.96 30.92 31.73 31.99 31.62 32.04 32.48 32.70
34.80 33.12 29.57 26.93 23.99 26.23 27.68 27.41 26.92 26.89 25.27 29.13 30.11 30.23 29.29 29.29 29.32 25.54 29.59 27.31 25.63 24.58 24.88 25.34 27.01 27.16 26.21 27.72 28.57 25.91 24.48 24.77 24.90 24.99 25.89 26.83 27.97 28.66 29.28 29.46 30.00 30.77 30.85 30.51
34.06 33.37 29.79 27.60 22.33 17.53 23.98 28.24 32.64 31.81 22.30 29.12 28.36 26.79 28.30 30.71 22.41 21.80 25.25 25.11 24.46 24.54 24.60 24.21 24.82 24.97 25.49 26.93 29.81 27.36 24.08 23.30 22.84 23.87 24.39 25.32 26.94 26.92 27.51 28.12 28.52 29.91 30.77 30.13
26.95 28.35 24.71 25.44 22.72 23.60 27.42 30.78 34.18 23.31 22.07 29.50 27.91 25.90 25.02 23.51 24.37 25.08 24.95 23.23 23.96 23.72 23.91 24.50 23.96 23.26 23.83 25.51 27.61 27.03 27.20 23.26 23.85 24.10 24.82 24.49 24.27 25.65 25.55 26.73 28.39 28.62 28.87 29.62
24.27 24.05 22.87 25.60 21.10 18.53 31.06 31.43 25.33 29.93 31.28 30.30 28.55 28.17 26.92 25.00 23.85 22.32 21.63 20.12 22.07 20.98 21.56 22.59 22.06 22.21 22.92 23.69 24.44 24.87 25.10 27.65 25.84 24.63 23.66 24.11 24.88 24.98 25.34 24.67 24.88 26.23 27.22 27.65
24.82 26.82 24.72 24.58 22.84 30.36 32.21 30.70 32.34 31.39 32.84 30.85 29.84 29.24 26.73 23.98 20.00 19.26 17.47 18.76 20.87 20.48 19.88 21.32 20.46 20.66 21.11 21.89 22.24 22.28 24.53 26.80 27.21 25.04 23.50 23.12 24.61 25.39 25.39 25.62 25.84 25.31 24.46 25.09
31.42 32.72 26.39 26.18 28.32 29.25 30.12 30.59 32.04 29.99 28.45 30.82 32.15 29.82 26.11 23.47 22.83 20.47 21.41 20.89 20.48 19.63 18.93 19.29 19.56 18.92 18.86 20.19 21.16 22.04 23.67 26.08 26.14 25.40 24.29 23.23 22.54 22.71 24.73 25.12 25.38 25.54 25.83 25.04
29.89 31.20 28.10 26.33 28.30 28.89 29.29 29.13 29.21 28.04 27.81 25.93 25.80 25.89 24.83 23.81 21.99 21.67 20.68 20.08 19.49 18.76 18.55 18.29 17.96 18.07 17.60 18.48 18.82 19.63 21.88 25.04 24.76 24.99 24.83 24.06 22.51 21.77 20.90 22.40 24.41 24.05 25.58 27.24
31.63 29.05 27.24 24.78 29.58 28.40 28.09 29.48 30.31 27.35 25.57 25.38 23.84 22.68 22.93 22.62 21.21 20.81 20.54 19.84 18.25 17.32 17.34 16.58 16.76 16.83 16.69 16.88 16.66 16.95 19.01 22.50 23.92 23.65 23.82 23.30 23.45 20.69 20.36 18.99 17.92 23.98 24.86 25.87
MSLP
1015.29 1015.95 1015.84 1015.58 1015.75 1015.46 1015.04 1014.82 1014.17 1012.50 1011.62 1011.51 1010.00 1009.77 1009.11 1008.36 1006.78 1006.29 1005.85 1005.21 1004.18 1003.51 1002.53 1002.66 1002.24 1002.14 1001.46 1001.78 1002.04 1002.50 1003.19 1003.90 1004.69 1005.40 1006.13 1006.72 1006.82 1006.98 1007.89 1008.15 1008.94 1009.64 1010.03 1010.58
1015.96 1015.40 1014.78 1014.81 1015.08 1015.34 1015.35 1014.79 1013.42 1012.30 1011.58 1011.58 1010.18 1008.77 1008.48 1007.18 1005.81 1005.05 1004.95 1004.46 1003.72 1003.34 1003.55 1003.71 1003.82 1003.48 1003.05 1003.22 1002.81 1002.66 1003.03 1003.49 1004.04 1004.54 1005.18 1006.06 1006.32 1006.89 1007.24 1007.86 1008.33 1009.16 1009.63 1010.10
1015.62 1014.12 1014.02 1014.20 1014.38 1014.52 1013.90 1014.13 1013.31 1012.74 1011.54 1011.06 1010.46 1008.41 1007.08 1005.32 1005.15 1004.12 1003.48 1003.30 1003.72 1004.05 1004.46 1004.80 1004.63 1004.78 1004.08 1004.12 1004.00 1003.32 1002.73 1003.00 1003.46 1003.97 1004.66 1005.82 1006.37 1006.98 1007.40 1007.70 1007.85 1008.30 1009.05 1009.70
1014.78 1013.73 1013.78 1013.77 1013.57 1013.76 1013.44 1012.32 1012.55 1012.23 1011.98 1011.04 1010.34 1008.08 1006.74 1005.31 1004.04 1004.14 1004.73 1004.78 1005.25 1005.56 1005.85 1006.47 1005.85 1005.87 1005.32 1005.12 1004.55 1004.28 1003.27 1003.25 1003.40 1003.70 1004.19 1004.93 1005.48 1005.86 1006.02 1006.52 1007.25 1007.81 1008.52 1009.13
1014.35 1013.54 1013.35 1013.24 1012.46 1012.70 1012.20 1011.66 1011.94 1011.58 1011.28 1010.93 1009.02 1009.82 1006.52 1004.98 1004.68 1005.76 1006.36 1006.47 1006.48 1006.97 1007.16 1007.72 1007.56 1007.40 1006.68 1005.96 1005.68 1005.42 1004.80 1004.28 1004.31 1004.30 1003.89 1004.64 1005.04 1005.37 1005.76 1006.34 1006.90 1007.34 1008.00 1008.60
1014.31 1013.14 1012.88 1012.09 1011.68 1011.68 1011.43 1011.64 1011.14 1010.67 1010.93 1010.72 1008.32 1009.10 1007.31 1006.84 1006.44 1006.80 1007.41 1007.77 1007.73 1008.11 1008.30 1008.43 1008.35 1007.92 1007.30 1007.14 1006.42 1006.42 1006.07 1005.28 1004.94 1005.15 1004.96 1004.66 1004.63 1005.05 1005.52 1006.03 1006.39 1006.73 1007.16 1007.70
1013.93 1012.59 1011.93 1011.76 1011.63 1010.90 1011.43 1011.77 1011.32 1010.55 1010.43 1009.40 1008.04 1008.82 1009.06 1008.98 1008.63 1008.62 1008.28 1008.66 1009.10 1009.24 1009.32 1009.44 1009.24 1008.82 1008.31 1008.14 1007.61 1007.61 1007.29 1006.31 1005.99 1005.69 1005.71 1005.49 1005.11 1004.78 1004.84 1005.19 1005.46 1005.74 1006.28 1006.91
1014.79 1012.62 1011.48 1011.01 1010.86 1010.74 1010.90 1011.08 1011.35 1010.32 1009.73 1008.44 1008.27 1009.14 1010.49 1010.86 1010.74 1010.36 1010.25 1009.90 1010.03 1010.34 1010.52 1010.51 1010.38 1010.08 1009.66 1009.27 1008.73 1008.65 1007.92 1006.73 1006.42 1006.44 1006.42 1006.16 1005.52 1005.16 1004.60 1004.51 1004.86 1005.18 1005.33 1005.79
1015.67 1013.14 1010.98 1010.56 1009.87 1010.32 1010.12 1010.40 1010.24 1010.24 1009.34 1008.58 1008.38 1010.00 1010.36 1011.34 1011.71 1011.80 1011.93 1011.58 1011.31 1011.60 1011.70 1011.43 1011.09 1010.62 1010.40 1009.96 1009.75 1009.42 1008.97 1008.24 1008.04 1007.69 1006.98 1006.29 1005.82 1005.32 1004.86 1004.21 1004.43 1004.83 1005.12 1005.33
1016.20 1013.68 1011.06 1009.97 1009.70 1009.60 1009.40 1009.61 1009.94 1009.81 1009.29 1008.88 1009.26 1010.58 1011.84 1012.16 1012.92 1013.36 1013.42 1012.97 1012.85 1013.15 1013.05 1012.32 1011.75 1011.13 1010.54 1010.26 1010.43 1010.36 1009.84 1009.32 1008.64 1008.02 1007.56 1006.92 1006.37 1005.30 1004.76 1004.48 1003.98 1004.26 1004.67 1005.09
1015.72 1014.71 1011.66 1010.57 1009.51 1009.37 1009.57 1009.47 1009.54 1009.65 1009.31 1009.46 1010.25 1012.21 1013.38 1013.78 1014.33 1014.68 1014.73 1014.70 1014.72 1014.66 1014.32 1012.79 1012.25 1012.15 1012.00 1011.44 1011.49 1010.96 1009.98 1009.45 1008.60 1008.18 1007.68 1007.26 1006.70 1005.84 1004.81 1004.22 1003.72 1003.86 1004.33 1004.67
1015.19 1014.27 1012.48 1010.49 1008.78 1009.06 1009.24 1009.18 1009.18 1009.34 1009.25 1009.75 1010.92 1013.66 1014.55 1015.01 1015.56 1015.85 1016.17 1015.90 1015.46 1015.62 1014.83 1013.03 1012.89 1012.93 1012.17 1012.37 1013.17 1011.76 1010.86 1010.05 1009.77 1009.32 1008.70 1008.15 1007.57 1006.73 1006.01 1005.22 1004.94 1003.64 1003.65 1004.13
1015.55 1014.29 1012.66 1010.57 1009.87 1009.60 1009.44 1009.09 1008.94 1009.16 1009.28 1010.09 1011.66 1014.20 1015.32 1015.86 1016.37 1016.61 1016.58 1016.49 1016.28 1015.77 1014.86 1014.47 1014.05 1013.85 1014.64 1013.68 1013.07 1012.46 1011.86 1011.46 1011.13 1010.51 1009.62 1009.16 1008.56 1007.81 1007.21 1006.43 1005.79 1005.09 1003.94 1003.81
1015.42 1014.67 1014.08 1013.69 1012.93 1012.38 1010.81 1009.42 1008.94 1009.33 1010.02 1011.49 1013.19 1015.05 1016.18 1016.75 1017.29 1017.31 1017.42 1017.60 1017.03 1016.00 1014.39 1012.72 1013.44 1015.04 1014.60 1014.66 1014.66 1013.13 1013.67 1012.99 1012.45 1011.50 1010.64 1010.03 1009.68 1009.01 1008.35 1007.56 1006.89 1006.20 1005.57 1004.77
1015.48 1014.96 1014.45 1013.82 1013.71 1013.25 1012.31 1011.40 1010.92 1010.85 1011.94 1012.96 1015.24 1016.25 1017.51 1018.12 1018.26 1018.39 1018.44 1018.13 1017.92 1017.45 1016.71 1016.98 1017.09 1016.83 1016.40 1016.03 1015.96 1015.90 1015.00 1014.23 1013.63 1012.82 1012.09 1011.66 1010.90 1010.14 1009.31 1008.50 1008.06 1007.30 1006.80 1006.72
1015.48 1014.97 1014.39 1013.69 1013.45 1013.47 1013.67 1013.48 1013.38 1013.41 1014.12 1015.06 1016.12 1017.48 1018.65 1019.14 1019.19 1018.87 1019.09 1019.20 1019.07 1019.00 1019.05 1018.83 1019.16 1018.86 1018.64 1018.16 1018.05 1017.12 1016.24 1015.55 1014.83 1014.01 1013.41 1012.74 1011.80 1010.91 1010.26 1009.64 1009.23 1008.77 1008.12 1007.91
1015.99 1015.18 1014.54 1013.76 1013.43 1013.37 1014.31 1015.46 1015.49 1015.57 1015.62 1016.18 1017.12 1018.56 1019.34 1019.73 1019.82 1020.11 1020.23 1020.39 1020.46 1020.51 1020.60 1020.67 1020.43 1020.19 1019.74 1019.14 1018.61 1017.95 1017.63 1017.09 1016.24 1015.54 1014.94 1014.20 1013.25 1012.47 1011.84 1011.35 1010.90 1010.10 1009.87 1009.52
1015.98 1015.28 1014.59 1013.74 1014.03 1014.88 1016.23 1016.51 1016.60 1016.95 1017.61 1017.94 1018.62 1019.46 1020.06 1020.73 1021.20 1021.35 1021.42 1021.62 1021.82 1021.90 1021.99 1021.69 1021.34 1020.71 1020.62 1020.05 1019.38 1019.37 1019.04 1018.34 1017.64 1017.06 1016.36 1015.52 1014.74 1013.98 1013.30 1012.86 1012.54 1012.02 1011.52 1011.09
1015.54 1015.34 1014.56 1013.95 1014.69 1016.03 1016.36 1017.38 1017.83 1017.86 1018.81 1019.27 1019.35 1019.85 1020.27 1020.85 1021.11 1022.40 1022.79 1023.28 1023.42 1023.53 1023.42 1023.09 1022.56 1022.21 1022.05 1021.29 1021.08 1020.62 1019.75 1019.22 1018.95 1018.28 1017.68 1017.12 1016.31 1015.49 1014.78 1014.18 1013.87 1013.49 1012.90 1012.39
1015.29 1015.42 1015.23 1014.88 1015.40 1016.73 1017.88 1018.06 1018.10 1018.17 1019.19 1020.06 1020.40 1020.84 1020.83 1021.12 1022.29 1023.89 1024.22 1024.31 1024.28 1024.24 1024.11 1023.86 1023.34 1022.92 1022.67 1022.21 1021.40 1020.96 1020.58 1020.21 1019.82 1019.36 1018.93 1018.40 1017.51 1016.86 1016.30 1015.74 1015.26 1014.94 1014.30 1013.97
1015.68 1015.88 1016.14 1015.77 1016.46 1017.81 1018.86 1018.47 1018.19 1018.96 1020.84 1020.59 1020.94 1021.44 1021.63 1022.46 1023.78 1024.67 1024.95 1025.05 1024.89 1024.88 1024.72 1024.40 1023.95 1023.62 1023.61 1023.00 1022.47 1021.69 1021.10 1020.80 1020.70 1020.35 1019.82 1019.26 1018.58 1017.93 1017.47 1016.94 1016.38 1015.98 1015.62 1015.30
1016.97 1017.11 1017.32 1017.38 1018.00 1019.08 1019.28 1018.83 1019.35 1020.60 1020.98 1021.23 1021.58 1022.10 1022.85 1023.84 1024.63 1025.22 1025.63 1025.82 1025.65 1025.86 1025.53 1025.29 1024.96 1024.78 1024.40 1023.88 1023.30 1022.58 1021.80 1021.70 1021.50 1021.32 1020.84 1020.17 1019.54 1018.85 1018.30 1017.80 1017.47 1017.11 1016.65 1016.21
1017.74 1018.24 1018.56 1019.43 1020.00 1020.51 1020.70 1020.66 1021.15 1021.32 1021.52 1022.02 1022.29 1022.85 1023.59 1024.47 1025.27 1025.48 1025.78 1026.00 1026.37 1026.40 1026.30 1025.88 1025.45 1025.36 1025.21 1024.74 1024.21 1023.52 1023.28 1022.72 1022.01 1021.83 1021.40 1020.94 1020.51 1019.96 1019.39 1018.80 1018.54 1018.29 1018.08 1017.70
1018.54 1018.70 1019.36 1020.28 1021.02 1021.34 1021.74 1021.99 1022.16 1022.34 1022.60 1022.84 1023.06 1023.63 1024.39 1025.16 1025.77 1026.21 1026.58 1026.89 1026.90 1026.89 1027.00 1026.90 1026.56 1026.50 1026.37 1025.91 1025.36 1024.94 1024.28 1023.35 1022.67 1022.30 1022.05 1021.78 1021.49 1021.05 1020.50 1020.20 1020.01 1019.70 1019.38 1018.98
1019.40 1019.45 1020.04 1020.97 1021.69 1022.28 1022.75 1023.02 1023.24 1023.47 1023.76 1024.00 1024.38 1024.80 1025.36 1025.92 1026.49 1026.86 1027.20 1027.47 1027.87 1028.01 1027.93 1027.73 1027.56 1027.44 1027.26 1026.72 1026.25 1025.72 1025.02 1024.07 1023.46 1023.21 1022.94 1022.79 1022.58 1022.38 1022.34 1022.20 1021.84 1021.54 1021.26 1020.63
1019.99 1020.26 1020.50 1021.07 1021.52 1022.37 1023.26 1023.61 1024.00 1024.28 1024.78 1025.20 1025.54 1026.12 1026.54 1026.82 1027.24 1027.63 1027.91 1028.23 1028.52 1028.74 1028.62 1028.39 1028.28 1028.24 1028.02 1027.59 1027.10 1026.56 1025.92 1025.25 1024.62 1024.28 1024.08 1023.96 1023.76 1023.71 1023.62 1023.46 1023.18 1022.86 1022.52 1022.03
Wind_Speed
3 1 10 11 10 15 13 11 15 20 22 21 25 20 18 15 21 19 19 19 21 17 16 7 8 6 3 5 8 14 15 14 12 10 10 10 13 11 9 8 10 10 9 10
2 10 14 11 10 10 11 15 19 20 19 15 20 24 20 20 24 21 23 23 21 11 4 9 10 9 11 7 3 4 11 11 12 11 11 6 9 8 7 7 8 9 10 11
6 10 6 12 13 12 15 12 19 22 22 18 17 22 18 23 18 20 22 21 1 3 7 8 11 11 10 11 9 7 8 13 13 12 8 3 5 4 3 8 9 10 11 10
7 5 5 6 9 9 12 14 17 19 13 10 2 15 20 16 21 11 11 13 10 11 12 11 11 13 13 12 11 10 10 4 7 11 10 13 9 8 9 7 7 9 10 12
9 4 5 6 8 6 13 11 13 18 16 13 16 8 7 11 9 10 9 13 13 13 13 12 12 11 11 12 12 10 9 10 10 8 8 10 9 7 4 4 10 10 10 11
12 6 5 6 4 7 9 8 14 11 2 6 16 8 4 8 8 8 10 13 14 13 13 13 12 11 12 12 14 12 11 10 11 8 7 4 14 9 7 9 10 10 8 10
12 4 4 3 5 2 4 3 5 4 1 6 5 5 8 14 12 12 10 13 14 13 13 13 14 14 14 14 14 12 13 12 11 10 9 7 6 8 12 11 10 12 10 9
7 10 4 5 7 4 6 6 4 6 4 6 3 4 6 10 13 14 14 13 15 15 13 13 13 12 13 14 14 13 13 13 13 11 10 8 6 4 5 9 8 9 9 11
7 8 5 10 10 6 1 3 5 5 8 8 6 3 6 14 17 15 15 13 14 14 12 13 13 13 13 14 14 14 13 13 12 11 9 9 8 8 8 7 7 6 7 7
6 12 6 6 2 5 5 1 2 2 5 5 4 5 6 13 14 14 14 16 15 12 9 12 12 14 15 15 13 13 13 13 12 12 9 9 9 8 7 8 9 10 6 7
9 7 9 7 4 4 2 3 3 4 2 2 4 4 8 11 11 12 13 11 11 9 8 11 13 13 14 15 15 14 16 16 16 15 13 12 11 12 8 8 8 9 7 9
2 6 7 13 18 5 3 5 4 3 2 2 3 3 5 11 9 8 10 11 9 9 8 14 16 16 16 17 14 15 16 17 17 14 13 13 13 13 12 10 13 6 9 9
5 4 7 8 1 2 4 4 8 7 4 4 3 4 6 9 8 9 12 12 11 13 15 16 15 18 15 14 17 17 18 17 16 15 15 14 14 14 13 13 12 13 6 8
7 3 5 5 5 8 7 10 2 1 4 5 8 9 10 11 11 11 14 13 16 17 23 27 24 18 16 18 14 19 17 16 15 15 16 16 15 14 12 12 13 13 13 10
3 3 3 7 9 11 21 17 14 15 9 6 7 10 10 10 11 12 12 15 17 19 21 19 17 17 18 18 16 15 16 16 15 15 16 15 14 14 14 14 13 13 14 14
1 3 4 3 3 5 17 21 18 13 13 11 11 9 7 8 8 13 15 16 18 18 17 18 16 16 16 16 14 14 16 16 15 15 16 15 16 16 17 16 16 13 14 15
4 3 3 1 7 9 4 11 14 11 19 6 5 5 5 10 15 15 13 16 17 17 15 14 14 14 14 15 15 15 14 14 15 15 15 16 16 16 16 15 15 16 14 13
4 4 3 2 1 5 2 7 6 17 15 11 11 8 9 11 11 12 13 14 15 15 14 13 11 13 15 14 15 13 13 14 14 14 15 16 15 16 16 15 15 15 13 13
11 4 4 1 3 4 2 8 6 6 8 12 6 2 5 7 5 14 12 12 11 10 9 9 10 11 11 12 11 10 12 13 14 15 14 14 15 14 15 16 16 13 13 14
5 2 4 1 2 2 4 11 7 6 5 10 9 8 8 0 4 4 9 8 9 10 9 9 10 10 13 13 12 11 13 13 14 14 13 12 13 13 13 12 13 12 12 12
3 3 5 4 3 4 8 10 5 2 2 8 8 8 11 7 5 5 6 9 9 10 11 10 10 11 12 13 11 13 12 14 11 11 12 12 12 12 12 10 11 10 11 11
3 4 3 2 3 1 12 3 3 5 5 6 7 8 10 9 7 6 6 7 9 9 10 11 9 9 11 12 11 12 14 12 10 9 10 11 12 11 10 12 11 12 11 11
3 3 3 5 3 4 6 11 9 5 5 3 5 7 8 6 5 5 5 7 8 8 8 9 10 10 11 12 12 13 13 12 12 11 11 11 11 11 12 14 13 10 11 10
2 3 3 1 3 5 6 7 7 6 5 5 6 7 7 7 5 5 6 6 7 9 9 8 9 10 11 11 12 12 12 12 9 12 11 10 10 11 14 11 10 10 11 10
2 2 4 4 5 6 6 5 6 8 9 10 10 8 7 7 6 6 7 7 6 6 7 7 8 9 11 11 11 11 12 12 10 11 11 9 8 8 8 8 9 9 10 12
3 2 0 1 5 3 4 3 5 6 6 6 7 8 8 6 6 5 6 6 5 6 7 7 9 9 8 9 10 11 11 11 11 10 9 7 5 5 6 5 5 14 15 20
Wind_Direction
284 125 248 231 225 254 279 272 263 269 275 289 285 273 279 272 276 273 272 265 269 262 277 15 21 3 189 66 222 192 180 180 172 176 184 188 198 183 190 180 179 180 179 178
337 241 264 256 240 241 260 268 272 288 290 287 287 289 278 257 260 264 263 258 257 239 63 49 24 25 36 27 19 178 181 174 182 188 195 201 192 205 190 179 164 177 180 181
206 247 294 289 279 266 259 264 278 270 288 284 280 277 272 259 274 271 246 247 329 141 76 45 42 15 26 22 4 353 184 174 188 190 167 119 116 94 144 188 185 188 181 181
246 266 233 258 257 232 276 249 260 271 287 282 38 294 280 288 274 286 43 50 52 46 48 30 32 20 19 12 3 356 46 91 170 176 177 186 191 187 202 197 192 182 173 184
266 276 292 284 236 144 241 300 265 270 265 285 275 252 283 270 272 66 41 45 48 37 38 27 23 22 19 16 12 4 22 48 30 22 198 185 187 198 144 156 182 181 185 189
252 261 241 229 292 204 264 295 276 261 227 255 270 198 324 2 18 63 51 48 43 42 36 31 24 18 27 20 23 9 11 35 32 17 1 250 191 185 168 173 184 193 192 195
305 269 261 197 297 275 148 315 317 319 267 252 327 156 29 15 26 33 41 59 49 40 38 31 27 23 31 24 24 11 6 30 23 17 359 344 335 213 191 189 194 191 188 198
331 322 200 173 207 249 204 178 235 281 256 267 317 321 34 22 19 21 29 46 54 45 36 35 33 33 31 25 24 14 9 21 17 9 345 331 322 289 238 205 195 200 197 202
306 265 310 293 256 142 316 196 168 266 261 272 102 59 95 25 25 19 18 18 36 34 33 35 34 33 32 29 25 13 13 22 15 5 345 334 327 295 269 217 203 197 203 192
288 291 253 302 299 246 177 276 301 243 319 321 54 60 14 20 14 17 13 24 20 13 18 43 35 33 29 25 19 17 17 19 16 11 3 350 327 315 259 271 210 208 207 186
262 239 291 341 222 215 302 264 197 259 207 309 337 67 15 34 21 11 16 9 9 355 340 47 43 39 36 29 13 12 17 12 12 7 4 1 353 350 336 255 242 208 188 189
286 290 280 263 289 181 190 247 224 246 277 94 76 56 12 48 19 12 21 16 5 352 1 46 36 25 24 27 11 18 16 17 9 4 8 7 1 2 5 0 356 245 202 198
348 274 297 305 15 11 304 278 268 278 178 183 116 88 50 47 32 29 24 16 13 7 21 45 48 34 22 23 17 16 19 14 9 5 10 11 9 10 4 3 356 2 279 198
300 292 351 358 350 331 341 327 17 161 41 64 63 96 45 30 22 29 32 23 16 14 18 26 23 12 16 21 11 18 9 12 8 15 15 16 11 9 9 8 10 10 10 1
342 277 245 90 50 17 34 35 55 65 50 51 87 75 44 28 25 22 32 28 26 26 25 25 24 16 16 13 11 7 9 10 7 15 19 15 15 14 16 17 18 23 30 17
35 278 275 249 293 9 38 30 39 62 87 87 87 79 47 35 33 34 34 30 31 28 26 22 17 21 17 17 7 8 7 5 8 17 16 10 16 19 19 19 19 25 34 36
299 296 287 290 346 317 20 12 31 50 36 40 70 63 72 49 40 28 36 31 29 27 20 16 15 18 16 17 13 15 7 2 11 15 15 14 12 19 22 22 19 24 27 29
271 273 254 268 135 32 254 5 35 70 42 52 86 95 98 92 68 43 43 35 30 23 14 11 11 14 11 11 17 13 10 12 14 16 14 14 15 19 18 23 23 23 26 28
209 285 283 280 60 118 19 18 347 355 52 26 38 85 147 155 97 47 45 51 34 21 11 11 10 16 7 6 18 16 21 22 18 18 17 12 18 18 21 20 19 19 28 29
134 38 275 78 114 154 50 328 325 303 70 28 32 27 29 2 68 39 28 37 35 26 19 11 12 23 19 3 9 25 26 25 20 9 9 8 14 22 24 24 21 15 23 30
351 14 347 357 93 98 354 318 308 299 10 42 46 40 48 79 75 87 52 35 27 19 13 16 20 23 16 9 16 20 26 26 12 4 8 13 16 23 19 22 25 24 29 32
54 318 10 340 54 28 355 7 53 95 75 80 72 71 76 87 83 70 52 38 35 20 14 14 21 22 15 13 8 18 21 10 16 16 17 17 18 20 19 26 23 24 22 33
57 47 21 4 72 48 20 60 56 53 90 89 102 93 99 85 65 52 35 34 29 23 13 12 19 17 15 11 17 16 4 0 18 19 21 21 22 25 28 34 31 28 23 26
92 36 87 186 95 76 62 41 58 61 75 45 96 101 103 106 89 76 54 38 30 21 17 9 19 23 15 8 14 15 7 3 15 26 26 21 20 26 33 36 29 29 28 32
4 343 100 76 111 103 76 56 96 79 76 72 59 67 84 95 73 68 53 43 35 28 16 23 22 22 11 4 8 4 3 8 15 28 27 28 20 23 24 27 31 31 28 34
9 28 32 119 137 94 105 89 108 90 79 80 92 70 51 73 85 77 67 63 37 26 21 26 29 22 6 8 7 0 357 4 21 25 23 15 22 24 28 20 14 35 47 44